Regional Weather Roundup
Issued by NWS Albany, NY

Current Version | Previous Version | Graphics & Text | Print | Product List | Glossary Off
Versions: 1 2 3 4 5 6 7 8 9 10 11 12 13 14 15 16 17 18 19 20 21 22 23 24 25 26 27

000
ASUS41 KALY 190510
RWRALY

NEW YORK STATE HOURLY WEATHER ROUNDUP
NATIONAL WEATHER SERVICE ALBANY NY
1200 AM EST SUN FEB 19 2017

NOTE: "FAIR" INDICATES FEW OR NO CLOUDS BELOW 12,000 FEET WITH NO
SIGNIFICANT WEATHER AND/OR NO OBSTRUCTIONS TO VISIBILITY.

NYZ032-033-038>043-046>054-057>066-NYZ062>081-082-084-190600-
EAST


CITY           SKY/WX    TMP DP  RH WIND       PRES   REMARKS
ALBANY         PTCLDY    48  32  53 SW5       29.63R
GLENS FALLS    CLEAR     47  33  58 S9        29.59R
POUGHKEEPSIE   CLOUDY    33  29  85 CALM      29.64R
NEWBURGH       PTCLDY    43  34  70 CALM      29.66R
MONTGOMERY     CLOUDY    35  30  82 CALM      29.64R
WHITE PLAINS   CLOUDY    52  30  43 W5        29.64S
ISLIP          CLOUDY    48  35  60 W10       29.64F
NEW YORK CITY  MOCLDY    60  32  34 SW12      29.66S
CENTRAL PARK   MOCLDY    59  32  36 MISG      29.69R
$$

NYZ005>009-017-018-044>046-055-056-190600-
CENTRAL


CITY           SKY/WX    TMP DP  RH WIND       PRES   REMARKS
FULTON         CLEAR     45  36  70 W8        29.67R
SYRACUSE       CLEAR     41  34  76 W10       29.66R
ROME           CLEAR     29  29 100 CALM      29.67R
ELMIRA         CLEAR     30  26  85 CALM      29.71R
BINGHAMTON     CLEAR     46  33  60 W9        29.68R
MONTICELLO     CLOUDY    46  32  57 W12       29.68R
$$

NYZ026>034-041>043-087-190600-
NORTH


CITY           SKY/WX    TMP DP  RH WIND       PRES   REMARKS
WATERTOWN      CLEAR     42  37  82 SW10      29.64R
FORT DRUM      NOT AVBL
OGDENSBURG     FAIR      42  36  78 SW10      29.58R
MASSENA        PTCLDY    41  34  76 SW10      29.58R
SARANAC LAKE   CLEAR     39  34  82 SW9       29.56R WCI  33
PLATTSBURGH    PTCLDY    45  34  65 VRB5      29.50R
$$

NYZ001>004-010>016-019>021-085-190600-
WEST


CITY           SKY/WX    TMP DP  RH WIND       PRES   REMARKS
NIAGARA FALLS  CLEAR     37  31  78 CALM      29.70R
BUFFALO        CLEAR     38  33  82 SW10      29.72R WCI  31
DUNKIRK        CLEAR     49  39  68 SW12      29.74R
JAMESTOWN      CLEAR     48  36  61 W10       29.74S
WELLSVILLE     CLEAR     50  37  61 W9        29.74S
ROCHESTER      CLEAR     46  38  73 W6        29.70R
PENN YAN       CLEAR     49  35  58 W8        29.70R
$$

             KEY
       WCI = WIND CHILL INDEX
       VSB = VISIBILITY
       HX  = HEAT INDEX
$$




USA.gov is the U.S. government's official web portal to all federal, state and local government web resources and services.